Location: Krakow
(50.0830°N, 19.9170°E)
Time: 10:15:05
(UTC+01:00)

Transit 2A - Pass Details

Date: 17 February 2023
Orbit: 591 x 964 km, 66.7° (Epoch: 21 March)

Event Time Altitude Azimuth Distance (km) Brightness Sun altitude
Rises 19:43:49 0° 321° (NW) 3,447 10.2 -26.5°
Reaches altitude 10° 19:46:39 10° 333° (NNW) 2,564 9.2 -27.0°
Enters shadow 19:51:21 27° 25° (NNE) 1,713 7.7 -27.7°
Maximum altitude 19:51:42 27° 31° (NNE) 1,711 - -27.7°
Drops below altitude 10° 19:56:58 10° 87° (E) 2,688 - -28.6°
Sets 20:00:00 0° 99° (E) 3,646 - -29.0°
